| time (UTC) | temp C | wind direction | speed KPH | gust KPH | rain 1hr cm | rain 24hr cm | rain mn cm | humidity % | barometer mb |
| 20260504160123 | 15 | 248 | 20.9 | 46.7 | 0.00 | 0.00 | 0.00 | 46 | 988.2 |
| 20260504151129 | 14 | 248 | 20.9 | 30.6 | 0.00 | 0.00 | 0.00 | 45 | 988.6 |
| 20260504150121 | 15 | 248 | 11.3 | 20.9 | 0.00 | 0.00 | 0.00 | 45 | 988.6 |
| 20260504141119 | 13 | 248 | 14.5 | 20.9 | 0.00 | 0.00 | 0.00 | 48 | 988.5 |
| 20260504140129 | 13 | 248 | 9.7 | 16.1 | 0.00 | 0.00 | 0.00 | 49 | 988.3 |
| 20260504130119 | 11 | 225 | 16.1 | 22.5 | 0.00 | 0.00 | 0.00 | 55 | 988.8 |
| 20260504120120 | 8 | 225 | 4.8 | 12.9 | 0.00 | 0.00 | 0.00 | 62 | 989.3 |
| 20260504110119 | 7 | 225 | 6.4 | 14.5 | 0.00 | 0.00 | 0.00 | 66 | 989.4 |
| 20260504100119 | 8 | 225 | 6.4 | 9.7 | 0.00 | 0.00 | 0.00 | 67 | 989.2 |
| 20260504090119 | 7 | 225 | 6.4 | 9.7 | 0.00 | 0.00 | 0.00 | 74 | 989.3 |
| 20260504081528 | 7 | 248 | 4.8 | 12.9 | 0.00 | 0.00 | 0.00 | 74 | 989.3 |
| 20260504080522 | 7 | 270 | 9.7 | 12.9 | 0.00 | 0.00 | 0.00 | 74 | 989.4 |
| 20260504050519 | 6 | 248 | 3.2 | 6.4 | 0.00 | 0.00 | 0.00 | 49 | 989.7 |
| 20260504045518 | 7 | 248 | 3.2 | 8.0 | 0.00 | 0.00 | 0.00 | 46 | 989.6 |
| 20260504044519 | 7 | 270 | 1.6 | 3.2 | 0.00 | 0.00 | 0.00 | 45 | 989.6 |
| 20260504043518 | 6 | 0.0 | 3.2 | 0.00 | 0.00 | 0.00 | 45 | 989.6 | |
| 20260504042519 | 6 | 0.0 | 0.0 | 0.00 | 0.00 | 0.00 | 45 | 989.6 | |
| 20260504041519 | 6 | 270 | 1.6 | 4.8 | 0.00 | 0.00 | 0.00 | 47 | 989.7 |
| 20260504040518 | 6 | 270 | 4.8 | 6.4 | 0.00 | 0.00 | 0.00 | 47 | 989.6 |
| 20260504035518 | 6 | 270 | 1.6 | 3.2 | 0.00 | 0.00 | 0.00 | 49 | 989.4 |
| 20260504034519 | 6 | 270 | 1.6 | 6.4 | 0.00 | 0.00 | 0.00 | 49 | 989.4 |
| 20260504033519 | 6 | 270 | 1.6 | 3.2 | 0.00 | 0.00 | 0.00 | 49 | 989.4 |
| 20260504032518 | 6 | 293 | 4.8 | 6.4 | 0.00 | 0.00 | 0.00 | 50 | 989.4 |
| 20260504031523 | 6 | 293 | 4.8 | 6.4 | 0.00 | 0.00 | 0.00 | 51 | 989.4 |
| 20260504030518 | 6 | 293 | 1.6 | 3.2 | 0.00 | 0.00 | 0.00 | 52 | 989.4 |
| 20260504025520 | 6 | 293 | 1.6 | 3.2 | 0.00 | 0.00 | 0.00 | 52 | 989.5 |
| 20260504024519 | 6 | 315 | 4.8 | 6.4 | 0.00 | 0.00 | 0.00 | 52 | 989.5 |
| 20260504023518 | 6 | 315 | 3.2 | 4.8 | 0.00 | 0.00 | 0.00 | 51 | 989.5 |
| 20260504022518 | 6 | 315 | 3.2 | 6.4 | 0.00 | 0.00 | 0.00 | 51 | 989.5 |
| 20260504021518 | 6 | 0.0 | 1.6 | 0.00 | 0.00 | 0.00 | 52 | 989.5 | |
| 20260504020518 | 6 | 315 | 3.2 | 4.8 | 0.00 | 0.00 | 0.00 | 50 | 989.5 |
| 20260504015519 | 6 | 315 | 3.2 | 4.8 | 0.00 | 0.00 | 0.00 | 48 | 989.3 |
| 20260504014520 | 6 | 0.0 | 1.6 | 0.00 | 0.00 | 0.00 | 48 | 989.2 | |
| 20260504013521 | 6 | 315 | 1.6 | 4.8 | 0.00 | 0.00 | 0.00 | 49 | 989.2 |
| 20260504012519 | 6 | 0.0 | 0.0 | 0.00 | 0.00 | 0.00 | 48 | 989.0 | |
| 20260504011519 | 6 | 0.0 | 1.6 | 0.00 | 0.00 | 0.00 | 49 | 988.9 | |
| 20260504010518 | 6 | 0.0 | 1.6 | 0.00 | 0.00 | 0.00 | 49 | 988.7 | |
| 20260504005519 | 6 | 0.0 | 0.0 | 0.00 | 0.00 | 0.00 | 49 | 988.6 | |
| 20260504004527 | 6 | 0.0 | 0.0 | 0.00 | 0.00 | 0.00 | 49 | 988.5 | |
| 20260504003519 | 6 | 0.0 | 0.0 | 0.00 | 0.00 | 0.00 | 48 | 988.5 | |
| 20260504002518 | 7 | 0.0 | 0.0 | 0.00 | 0.00 | 0.00 | 48 | 988.4 | |
| 20260504001518 | 7 | 0.0 | 1.6 | 0.00 | 0.00 | 0.00 | 48 | 988.3 | |
| 20260504000522 | 7 | 0.0 | 4.8 | 0.00 | 0.00 | 0.00 | 47 | 988.2 | |
| 20260503235518 | 7 | 315 | 1.6 | 4.8 | 0.00 | 0.00 | 0.00 | 46 | 988.1 |
| 20260503234518 | 8 | 0.0 | 0.0 | 0.00 | 0.00 | 0.00 | 46 | 988.0 | |
| 20260503233518 | 8 | 338 | 1.6 | 4.8 | 0.00 | 0.00 | 0.00 | 45 | 987.9 |
| 20260503232519 | 8 | 293 | 1.6 | 4.8 | 0.00 | 0.00 | 0.00 | 45 | 988.0 |
| 20260503231518 | 8 | 0.0 | 0.0 | 0.00 | 0.00 | 0.00 | 46 | 988.0 | |
| 20260503230522 | 8 | 315 | 4.8 | 11.3 | 0.00 | 0.00 | 0.00 | 44 | 988.0 |
| 20260503225527 | 8 | 338 | 8.0 | 17.7 | 0.00 | 0.00 | 0.00 | 45 | 987.8 |
| 20260503224520 | 8 | 315 | 9.7 | 19.3 | 0.00 | 0.00 | 0.00 | 43 | 987.9 |
| 20260503223518 | 9 | 270 | 12.9 | 22.5 | 0.00 | 0.00 | 0.00 | 43 | 987.9 |
| 20260503222520 | 9 | 45 | 8.0 | 16.1 | 0.00 | 0.00 | 0.00 | 44 | 987.9 |
| 20260503221519 | 9 | 315 | 8.0 | 12.9 | 0.00 | 0.00 | 0.00 | 46 | 987.8 |
| 20260503220522 | 8 | 315 | 6.4 | 14.5 | 0.00 | 0.00 | 0.00 | 47 | 987.8 |
| 20260503215518 | 8 | 315 | 14.5 | 29.0 | 0.00 | 0.00 | 0.00 | 45 | 987.7 |
| 20260503214519 | 8 | 315 | 16.1 | 22.5 | 0.00 | 0.00 | 0.00 | 45 | 987.6 |
| 20260503213518 | 8 | 315 | 12.9 | 19.3 | 0.00 | 0.00 | 0.00 | 48 | 987.6 |
| 20260503212522 | 8 | 315 | 6.4 | 11.3 | 0.00 | 0.00 | 0.00 | 48 | 987.6 |
| 20260503211524 | 8 | 293 | 4.8 | 12.9 | 0.00 | 0.00 | 0.00 | 48 | 987.6 |
| 20260503210524 | 8 | 293 | 9.7 | 14.5 | 0.00 | 0.00 | 0.00 | 47 | 987.5 |
| 20260503205518 | 8 | 293 | 22.5 | 29.0 | 0.00 | 0.00 | 0.00 | 46 | 987.6 |
| 20260503204518 | 8 | 315 | 9.7 | 20.9 | 0.00 | 0.00 | 0.00 | 48 | 987.6 |
| 20260503203520 | 8 | 315 | 9.7 | 17.7 | 0.00 | 0.00 | 0.00 | 47 | 987.6 |
| 20260503202522 | 8 | 293 | 9.7 | 17.7 | 0.00 | 0.00 | 0.00 | 45 | 987.5 |
| 20260503201520 | 8 | 338 | 8.0 | 17.7 | 0.00 | 0.00 | 0.00 | 45 | 987.4 |
| 20260503200518 | 8 | 315 | 4.8 | 8.0 | 0.00 | 0.00 | 0.00 | 46 | 987.4 |
| 20260503195520 | 8 | 293 | 17.7 | 29.0 | 0.00 | 0.00 | 0.00 | 47 | 987.5 |
| 20260503194520 | 8 | 293 | 6.4 | 11.3 | 0.00 | 0.00 | 0.00 | 48 | 987.6 |
| 20260503193519 | 8 | 338 | 6.4 | 16.1 | 0.00 | 0.00 | 0.00 | 47 | 987.6 |
| 20260503192522 | 8 | 293 | 17.7 | 24.1 | 0.00 | 0.00 | 0.00 | 46 | 987.6 |
| 20260503191520 | 8 | 315 | 12.9 | 25.7 | 0.00 | 0.00 | 0.00 | 45 | 987.6 |
| 20260503190522 | 8 | 315 | 14.5 | 20.9 | 0.00 | 0.00 | 0.00 | 45 | 987.6 |
| 20260503185623 | 8 | 293 | 11.3 | 22.5 | 0.00 | 0.00 | 0.00 | 47 | 987.6 |
| 20260503184720 | 7 | 293 | 17.7 | 27.4 | 0.00 | 0.00 | 0.00 | 46 | 987.6 |
| 20260503183720 | 8 | 293 | 17.7 | 25.7 | 0.00 | 0.00 | 0.00 | 46 | 987.6 |
| 20260503182719 | 8 | 293 | 14.5 | 38.6 | 0.00 | 0.00 | 0.00 | 46 | 987.5 |
| 20260503181720 | 8 | 23 | 16.1 | 33.8 | 0.00 | 0.00 | 0.00 | 45 | 987.3 |
| 20260503180719 | 9 | 338 | 6.4 | 12.9 | 0.00 | 0.00 | 0.00 | 45 | 987.3 |
| 20260503175719 | 9 | 293 | 8.0 | 17.7 | 0.00 | 0.00 | 0.00 | 44 | 987.2 |
| 20260503174720 | 8 | 338 | 4.8 | 12.9 | 0.00 | 0.00 | 0.00 | 43 | 987.1 |
| 20260503173930 | 8 | 315 | 12.9 | 20.9 | 0.00 | 0.00 | 0.00 | 42 | 987.1 |
| 20260503172721 | 8 | 315 | 14.5 | 22.5 | 0.00 | 0.00 | 0.00 | 46 | 987.2 |
| 20260503171845 | 8 | 315 | 11.3 | 24.1 | 0.00 | 0.00 | 0.00 | 43 | 987.1 |